Location: Ambrosina
(19.9365°S, 43.9833°W)
Time: 01:52:39
(UTC+00:00)

Aurora 2 Rocket - Pass Details

Date: 11 May 2021
Orbit: 389 x 1738 km, 25.0° (Epoch: 20 June)

Event Time Altitude Azimuth Distance (km) Brightness Sun altitude
Rises 21:41:39 0° 272° (W) 3,262 7.9 -17.3°
Reaches altitude 10° 21:44:35 10° 267° (W) 2,109 6.4 -17.9°
Maximum altitude 21:49:11 49° 192° (SSW) 693 2.7 -19.0°
Enters shadow 21:50:01 41° 151° (SSE) 755 2.7 -19.2°
